Location: Hohe Wand Kleine Kanzel
(47.8330°N, 16.0170°E)
Time: 17:23:03
(UTC+02:00)

Vanguard 3 - Pass Details

Date: 07 August 2021
Orbit: 510 x 3260 km, 33.4° (Epoch: 23 September)

Event Time Altitude Azimuth Distance (km) Brightness Sun altitude
Rises 00:55:58 0° 272° (W) 7,067 12.0 -25.7°
Reaches altitude 10° 01:05:45 10° 248° (WSW) 6,198 11.4 -25.7°
Maximum altitude 01:11:31 12° 231° (SW) 5,961 11.2 -25.7°
Enters shadow 01:13:01 12° 226° (SW) 5,940 11.1 -25.7°
